Flag for Canada Weather past 2 weeks in Sherbrooke, Quebec, Canada

Now
64 °F

Clear.


Feels Like: 64 °F
Forecast: 58 / 78 °F
Wind: 2 mph from North

Location: Sherbrooke

Current Time: Jul 23, 2014 at 2:10:38 AM

Latest Report: Jul 23, 2014 at 1:00 AM


Visibility: 9 mi

Pressure: 29.88 "Hg

Humidity: 94%

Dew point: 63 °F

Location of SherbrookeLocation

Historic Weather in Sherbrooke — Graph

°F

Sherbrooke temperature yesterday

Maximum temperature yesterday: 82 °F (at 1:00 PM)
Minimum temperature yesterday: 57 °F (at 4:00 AM)
Average temperature yesterday: 67 °F

Past Weeks' High & Low Weather Summary

 TemperatureHumidityPressure
High82 °F (Jul 22, 1:00 PM)100% (Jul 11, 12:00 AM)30.31 "Hg (Jul 11, 12:00 AM)
Low45 °F (Jul 11, 5:00 AM)39% (Jul 20, 1:00 PM)29.64 "Hg (Jul 8, 1:00 AM)
Average66 °F76%30.02 "Hg
* Reported Jul 8 1:00 AM — Jul 23 1:00 AM, Sherbrooke, Weather by CustomWeather, © 2014

Note: Actual official high and low records may vary slightly from our data, if they occured in-between our weather recording intervals... More about our weather records

Advertising

Sherbrooke weather history for previous 24 hours

 ConditionsComfort  
Time TempWeatherWind HumidityBarometerVisibility
1:00 AM
Jul 23
64 °FClear.2 mph94%29.88 "Hg9 mi
12:03 AM63 °FFog.No wind100%29.89 "Hg5 mi
11:00 PM
Jul 22
64 °FClear.No wind94%29.92 "Hg9 mi
10:00 PM68 °FClear.2 mph83%29.94 "Hg7 mi
9:00 PM70 °FSunny.3 mph83%29.95 "Hg9 mi
8:00 PM75 °FSunny.2 mph74%29.96 "Hg9 mi
1:00 PM82 °FPassing clouds.6 mph51%30.05 "Hg9 mi
12:00 PM81 °FScattered clouds.8 mph58%30.07 "Hg9 mi
11:00 AM79 °FSunny.8 mph65%30.09 "Hg9 mi
10:00 AM77 °FSunny.6 mph65%30.11 "Hg9 mi
9:00 AM73 °FSunny.10 mph74%30.13 "Hg9 mi
8:00 AM68 °FSunny.2 mph83%30.11 "Hg9 mi
7:00 AM63 °FSunny.No wind88%30.10 "Hg9 mi
6:00 AM57 °FClear.2 mph94%30.11 "Hg9 mi
5:00 AM57 °FClear.3 mph94%30.11 "Hg9 mi
4:00 AM57 °FClear.2 mph100%30.11 "Hg9 mi
3:00 AM59 °FClear.2 mph94%30.11 "Hg9 mi
2:00 AM59 °FClear.3 mph94%30.11 "Hg9 mi
Weather by CustomWeather, © 2014

See weather overviewHow to use our weather pages